一网星座-0333星 (ONEWEB-0333 )

导读

ONEWEB-0333是英国OneWeb星座下的低轨卫星,于2021年9月14日发射,该卫星由OneWeb与空客合资工厂制造,单星重约147.5公斤,配备Ku波段天线,通过特殊频率设计避免与静止轨道卫星干扰,设计寿命结束后会主动安全脱轨。它的核心任务是为全球提供可负担的高速卫星互联网接入,尤其服务偏远地区网络覆盖,助力OneWeb构建全球低轨通信网络。

Basic Information
目录编号:
49199
目录名称:
ONEWEB-0333
国际标识:
2021-083P
轨道中心:
EARTH
卫星名称:
一网星座-0333星
卫星全名:
一网星座-0333星 (ONEWEB-0333 )
卫星状态:
在轨 (已飞行1824 天)
发射日期:
2021-09-14 UTC
国别 :
英国 (GB)
星等 :
--
This satellite is enrolled in the Space Conjunction Data Service (SCDS) and the current flight risk assessment level is: No High Risk
Orbit Information
数据来源 国际轨道数据 AOE轨道数据
星历时间 2026-09-12T00:16:13+0800
14小时前
查看轨道信息
2026-09-10T23:00:00+0800
1天前
查看轨道信息
半长轴 7587.904km 7587.913km
偏心率 0.0001985 0.000164
轨道倾角 87.893° 87.893°
近地点辐角 98.170° 86.115°
升交点赤经 303.027° 303.236°
平近点角 261.966° 338.116°
近地点 1208.26km 1208.531km
远地点 1211.274km 1211.021km
周期 109.633分钟 109.633分钟
每日圈数 13.134698 13.134673
Detailed Information
平衡模式:
三轴稳定
覆盖范围:
全球
运营商:
一网卫星公司
运营商所在国:
英国
制造商(研发单位):
一网卫星公司
制造商所在国:
英国
使用方式:
暂无
Satellite Introduction
OneWeb卫星网络由648颗重约125公斤的微型卫星组成,运行在1200公里的轨道上。 每颗卫星都能够提供至少每秒8千兆位的吞吐量,以使用其高吞吐量的Ku频段有效载荷为家庭和移动平台提供互联网接入。该卫星仍在工作。
2D Orbit Map
3D Orbit Map
Orbit Altitude Analysis Chart
Orbit Inclination Analysis Chart
Orbit Comprehensive Analysis Chart
View Comprehensive Chart
Miss Distance Evolution Trend with All Objects
Collision Probability Evolution Trend with All Objects